QPF
0.00 0.00 0.01 0.02 0.00 0.00 0.00 0.00 0.00 0.00 0.00 0.00 0.00 0.00 0.00 0.00 0.00 0.00 0.00 0.00 0.00 0.00 0.00 0.00 0.00 0.00 0.01 0.00 0.00 0.00 0.00 0.01 0.01 0.01 0.00 0.00 0.00 0.01 0.01 0.01 0.02 0.01 0.01
0.00 0.00 0.01 0.01 0.00 0.00 0.00 0.00 0.00 0.00 0.01 0.00 0.01 0.01 0.00 0.00 0.00 0.00 0.00 0.00 0.00 0.00 0.00 0.00 0.01 0.01 0.01 0.00 0.00 0.00 0.01 0.01 0.00 0.00 0.00 0.00 0.00 0.00 0.00 0.00 0.03 0.02 0.01
0.00 0.00 0.00 0.00 0.00 0.00 0.00 0.00 0.00 0.00 0.01 0.01 0.01 0.02 0.02 0.01 0.00 0.00 0.00 0.00 0.00 0.00 0.00 0.00 0.01 0.00 0.00 0.00 0.00 0.00 0.00 0.00 0.00 0.00 0.00 0.01 0.01 0.02 0.01 0.02 0.03 0.02 0.01
0.00 0.00 0.00 0.00 0.00 0.00 0.00 0.00 0.00 0.01 0.02 0.02 0.02 0.03 0.04 0.00 0.00 0.00 0.00 0.00 0.00 0.00 0.00 0.00 0.01 0.00 0.00 0.00 0.00 0.00 0.00 0.00 0.00 0.00 0.00 0.00 0.00 0.00 0.01 0.01 0.01 0.00 0.00
0.00 0.00 0.00 0.00 0.00 0.00 0.00 0.00 0.00 0.01 0.01 0.02 0.02 0.01 0.00 0.00 0.00 0.00 0.00 0.00 0.00 0.00 0.00 0.01 0.00 0.00 0.00 0.00 0.00 0.00 0.00 0.00 0.00 0.00 0.00 0.00 0.00 0.00 0.00 0.00 0.00 0.00 0.00
0.00 0.00 0.00 0.00 0.00 0.00 0.00 0.00 0.00 0.00 0.00 0.01 0.01 0.00 0.00 0.00 0.00 0.00 0.00 0.00 0.00 0.00 0.00 0.00 0.00 0.00 0.00 0.00 0.00 0.00 0.00 0.00 0.00 0.00 0.00 0.00 0.00 0.00 0.00 0.00 0.00 0.00 0.00
0.00 0.00 0.00 0.00 0.00 0.00 0.00 0.00 0.00 0.00 0.00 0.00 0.00 0.00 0.00 0.00 0.00 0.00 0.00 0.00 0.00 0.00 0.00 0.00 0.00 0.00 0.00 0.00 0.00 0.00 0.00 0.00 0.00 0.00 0.00 0.00 0.00 0.00 0.00 0.00 0.00 0.00 0.00
0.00 0.00 0.00 0.00 0.00 0.00 0.00 0.00 0.00 0.00 0.00 0.00 0.00 0.00 0.00 0.00 0.00 0.00 0.00 0.00 0.00 0.00 0.00 0.00 0.00 0.00 0.00 0.00 0.00 0.00 0.00 0.00 0.00 0.00 0.00 0.00 0.00 0.00 0.00 0.00 0.00 0.00 0.00
0.00 0.00 0.01 0.01 0.00 0.00 0.00 0.00 0.00 0.00 0.00 0.00 0.00 0.00 0.00 0.00 0.00 0.00 0.00 0.00 0.00 0.00 0.00 0.00 0.00 0.00 0.00 0.00 0.00 0.00 0.00 0.00 0.00 0.00 0.00 0.00 0.00 0.00 0.00 0.00 0.00 0.00 0.00
0.01 0.01 0.01 0.01 0.01 0.00 0.00 0.00 0.00 0.00 0.00 0.00 0.00 0.00 0.00 0.00 0.00 0.00 0.00 0.00 0.00 0.00 0.00 0.00 0.00 0.00 0.00 0.00 0.00 0.00 0.00 0.00 0.00 0.00 0.00 0.00 0.00 0.00 0.00 0.00 0.00 0.00 0.00
0.01 0.01 0.01 0.01 0.00 0.00 0.00 0.01 0.01 0.00 0.00 0.00 0.00 0.00 0.00 0.00 0.00 0.00 0.00 0.00 0.00 0.00 0.00 0.00 0.00 0.00 0.00 0.00 0.00 0.00 0.00 0.00 0.00 0.00 0.00 0.00 0.00 0.00 0.00 0.00 0.00 0.00 0.00
0.01 0.00 0.02 0.01 0.00 0.00 0.00 0.01 0.01 0.00 0.00 0.00 0.00 0.00 0.00 0.00 0.00 0.00 0.00 0.00 0.00 0.00 0.00 0.00 0.00 0.00 0.00 0.00 0.00 0.00 0.00 0.00 0.00 0.00 0.00 0.00 0.00 0.00 0.00 0.00 0.00 0.00 0.00
0.03 0.03 0.02 0.02 0.01 0.01 0.01 0.01 0.01 0.00 0.00 0.00 0.00 0.00 0.00 0.00 0.00 0.00 0.00 0.00 0.00 0.00 0.00 0.00 0.00 0.00 0.00 0.00 0.00 0.00 0.00 0.00 0.00 0.00 0.00 0.00 0.00 0.00 0.00 0.00 0.00 0.00 0.00
0.04 0.01 0.01 0.01 0.01 0.00 0.00 0.00 0.00 0.00 0.00 0.00 0.00 0.00 0.00 0.00 0.00 0.00 0.00 0.00 0.00 0.00 0.00 0.00 0.00 0.00 0.00 0.00 0.00 0.00 0.00 0.00 0.00 0.00 0.00 0.00 0.00 0.00 0.00 0.00 0.00 0.00 0.00
0.03 0.02 0.01 0.01 0.00 0.00 0.00 0.00 0.00 0.00 0.00 0.00 0.00 0.00 0.00 0.00 0.00 0.00 0.00 0.00 0.00 0.00 0.00 0.00 0.00 0.00 0.00 0.00 0.00 0.00 0.00 0.00 0.00 0.00 0.00 0.00 0.00 0.00 0.00 0.00 0.00 0.00 0.00
0.01 0.01 0.00 0.01 0.00 0.00 0.00 0.00 0.00 0.00 0.00 0.00 0.00 0.00 0.00 0.00 0.00 0.00 0.00 0.00 0.00 0.00 0.00 0.00 0.00 0.00 0.00 0.00 0.00 0.00 0.00 0.00 0.00 0.00 0.00 0.00 0.00 0.00 0.00 0.00 0.00 0.00 0.00
0.00 0.00 0.00 0.00 0.00 0.00 0.00 0.00 0.00 0.00 0.00 0.00 0.00 0.00 0.00 0.00 0.00 0.00 0.00 0.00 0.00 0.00 0.00 0.00 0.00 0.00 0.00 0.00 0.00 0.00 0.00 0.00 0.00 0.00 0.00 0.00 0.00 0.00 0.00 0.00 0.06 0.04 0.01
0.02 0.00 0.00 0.00 0.00 0.00 0.00 0.00 0.00 0.00 0.00 0.00 0.00 0.00 0.00 0.00 0.00 0.00 0.00 0.00 0.00 0.00 0.00 0.00 0.00 0.00 0.00 0.00 0.00 0.00 0.00 0.00 0.00 0.00 0.00 0.00 0.00 0.00 0.00 0.00 0.01 0.03 0.03
0.13 0.05 0.00 0.00 0.00 0.00 0.00 0.00 0.00 0.00 0.00 0.00 0.00 0.00 0.00 0.00 0.00 0.00 0.00 0.00 0.00 0.00 0.00 0.00 0.00 0.00 0.00 0.00 0.00 0.00 0.00 0.00 0.00 0.00 0.00 0.00 0.00 0.00 0.00 0.00 0.00 0.00 0.00
0.40 0.28 0.11 0.01 0.01 0.02 0.01 0.00 0.00 0.00 0.00 0.00 0.00 0.00 0.00 0.00 0.00 0.00 0.00 0.00 0.00 0.00 0.00 0.00 0.00 0.00 0.00 0.00 0.00 0.00 0.00 0.00 0.00 0.00 0.00 0.00 0.00 0.00 0.00 0.00 0.00 0.00 0.00
0.31 0.46 0.35 0.21 0.12 0.14 0.04 0.00 0.00 0.00 0.00 0.00 0.01 0.00 0.00 0.00 0.00 0.00 0.00 0.00 0.00 0.00 0.00 0.00 0.00 0.00 0.00 0.00 0.00 0.00 0.00 0.00 0.00 0.00 0.00 0.00 0.00 0.00 0.00 0.00 0.00 0.00 0.00
0.09 0.40 0.49 0.47 0.32 0.22 0.23 0.12 0.10 0.04 0.02 0.00 0.02 0.01 0.01 0.02 0.01 0.00 0.00 0.00 0.00 0.00 0.00 0.00 0.00 0.00 0.00 0.00 0.00 0.00 0.00 0.00 0.00 0.00 0.00 0.00 0.00 0.01 0.02 0.04 0.03 0.01 0.00
0.04 0.20 0.64 0.59 0.40 0.30 0.36 0.48 0.38 0.26 0.14 0.16 0.08 0.05 0.09 0.05 0.01 0.00 0.00 0.00 0.00 0.00 0.02 0.00 0.00 0.00 0.00 0.01 0.01 0.03 0.06 0.03 0.02 0.01 0.01 0.01 0.01 0.02 0.03 0.02 0.02 0.01 0.00
0.07 0.12 0.39 0.53 0.54 0.32 0.32 0.30 0.29 0.28 0.24 0.15 0.10 0.12 0.16 0.10 0.01 0.00 0.01 0.01 0.05 0.15 0.10 0.06 0.05 0.07 0.08 0.09 0.16 0.16 0.16 0.12 0.05 0.01 0.00 0.00 0.01 0.01 0.01 0.01 0.01 0.02 0.01
0.11 0.16 0.21 0.29 0.31 0.49 0.30 0.27 0.23 0.18 0.18 0.17 0.12 0.15 0.09 0.07 0.03 0.09 0.16 0.23 0.28 0.33 0.26 0.23 0.16 0.30 0.44 0.41 0.26 0.18 0.16 0.17 0.17 0.16 0.09 0.02 0.02 0.01 0.01 0.02 0.03 0.01 0.00
0.02 0.11 0.23 0.29 0.25 0.26 0.31 0.34 0.30 0.31 0.28 0.19 0.14 0.16 0.21 0.28 0.34 0.40 0.37 0.26 0.24 0.17 0.09 0.10 0.11 0.09 0.08 0.06 0.05 0.10 0.15 0.15 0.15 0.14 0.09 0.02 0.02 0.01 0.01 0.01 0.02 0.02 0.01
MSLP
1011.52 1011.75 1012.30 1012.66 1013.14 1013.38 1013.65 1013.91 1014.24 1014.42 1014.75 1014.90 1015.02 1015.45 1015.84 1016.20 1016.61 1016.88 1017.03 1017.43 1017.61 1017.76 1017.98 1018.25 1018.51 1018.75 1018.96 1019.02 1019.29 1019.39 1019.48 1019.53 1019.57 1019.62 1019.68 1019.60 1019.46 1019.43 1019.45 1019.53 1019.43 1019.44 1019.46
1010.94 1011.54 1012.12 1012.66 1013.03 1013.49 1013.83 1014.08 1014.34 1014.57 1014.87 1015.13 1015.20 1015.60 1015.97 1016.40 1016.74 1017.09 1017.41 1017.67 1017.95 1018.03 1018.27 1018.62 1018.83 1019.07 1019.26 1019.41 1019.64 1019.75 1019.84 1019.93 1019.98 1020.04 1020.10 1020.02 1019.96 1019.90 1019.92 1020.00 1019.91 1019.86 1019.93
1010.90 1011.57 1012.07 1012.53 1013.03 1013.46 1014.03 1014.35 1014.51 1014.68 1014.91 1015.29 1015.42 1015.73 1016.06 1016.56 1016.98 1017.35 1017.73 1017.96 1018.22 1018.42 1018.67 1018.87 1019.18 1019.44 1019.60 1019.86 1020.09 1020.19 1020.32 1020.38 1020.42 1020.48 1020.49 1020.48 1020.34 1020.13 1020.19 1020.31 1020.23 1020.25 1020.34
1010.76 1011.57 1012.16 1012.43 1013.03 1013.50 1014.08 1014.47 1014.71 1014.88 1015.11 1015.46 1015.64 1015.92 1016.32 1016.80 1017.30 1017.68 1018.03 1018.24 1018.50 1018.77 1019.06 1019.40 1019.64 1019.82 1019.99 1020.20 1020.49 1020.62 1020.71 1020.81 1020.86 1020.82 1020.81 1020.74 1020.67 1020.56 1020.52 1020.54 1020.58 1020.67 1020.82
1010.96 1011.56 1012.14 1012.56 1013.02 1013.57 1014.06 1014.47 1014.82 1015.10 1015.38 1015.75 1015.98 1016.25 1016.63 1017.08 1017.59 1017.94 1018.25 1018.59 1018.83 1019.17 1019.51 1019.81 1019.99 1020.17 1020.39 1020.61 1020.79 1020.91 1021.06 1021.21 1021.30 1021.39 1021.40 1021.32 1021.23 1021.16 1021.14 1021.14 1021.07 1021.11 1021.24
1011.19 1011.62 1012.18 1012.66 1013.16 1013.63 1014.11 1014.58 1014.88 1015.34 1015.64 1016.02 1016.24 1016.51 1016.98 1017.49 1017.83 1018.26 1018.58 1018.97 1019.26 1019.45 1019.83 1020.13 1020.23 1020.42 1020.73 1020.93 1021.18 1021.31 1021.43 1021.54 1021.65 1021.83 1021.89 1021.78 1021.73 1021.57 1021.61 1021.67 1021.66 1021.69 1021.75
1011.19 1011.82 1012.31 1012.74 1013.32 1013.82 1014.32 1014.76 1015.08 1015.39 1015.95 1016.07 1016.32 1016.80 1017.27 1017.73 1018.14 1018.57 1018.94 1019.23 1019.52 1019.74 1020.11 1020.41 1020.51 1020.74 1020.99 1021.20 1021.45 1021.58 1021.81 1021.91 1022.13 1022.26 1022.27 1022.20 1022.03 1021.94 1021.97 1022.02 1022.07 1022.11 1022.16
1011.16 1011.87 1012.43 1012.92 1013.47 1014.01 1014.35 1014.92 1015.28 1015.59 1016.15 1016.23 1016.64 1017.09 1017.51 1018.00 1018.40 1018.77 1019.12 1019.37 1019.68 1020.00 1020.35 1020.66 1020.83 1021.03 1021.28 1021.51 1021.74 1021.89 1022.15 1022.27 1022.42 1022.61 1022.68 1022.55 1022.33 1022.38 1022.46 1022.45 1022.52 1022.54 1022.57
1011.32 1011.87 1012.56 1013.05 1013.74 1014.29 1014.63 1015.13 1015.57 1015.85 1016.28 1016.54 1017.01 1017.33 1017.82 1018.30 1018.67 1018.96 1019.25 1019.49 1019.80 1020.18 1020.59 1020.95 1021.14 1021.40 1021.61 1021.87 1022.16 1022.34 1022.50 1022.71 1022.91 1022.97 1022.95 1022.94 1022.66 1022.68 1022.80 1022.88 1022.96 1022.99 1023.03
1011.75 1012.15 1012.65 1013.27 1013.93 1014.50 1015.00 1015.35 1015.79 1016.22 1016.59 1016.75 1017.39 1017.67 1018.13 1018.62 1018.94 1019.25 1019.56 1019.78 1020.13 1020.50 1020.93 1021.26 1021.48 1021.74 1021.91 1022.14 1022.35 1022.60 1022.79 1022.96 1023.20 1023.31 1023.28 1023.17 1023.07 1023.05 1023.15 1023.27 1023.29 1023.35 1023.41
1011.68 1012.30 1012.65 1013.43 1014.18 1014.68 1015.17 1015.56 1016.01 1016.52 1016.80 1017.14 1017.59 1017.97 1018.40 1018.87 1019.32 1019.61 1019.91 1020.15 1020.54 1020.87 1021.19 1021.51 1021.82 1022.13 1022.35 1022.47 1022.60 1022.81 1023.03 1023.36 1023.52 1023.62 1023.59 1023.33 1023.27 1023.34 1023.46 1023.54 1023.58 1023.64 1023.72
1011.48 1012.23 1012.79 1013.55 1014.35 1014.91 1015.29 1015.81 1016.31 1016.85 1017.15 1017.58 1017.79 1018.22 1018.61 1018.99 1019.61 1019.84 1020.16 1020.44 1020.68 1021.00 1021.29 1021.62 1021.97 1022.32 1022.65 1022.94 1023.04 1023.11 1023.32 1023.48 1023.65 1023.79 1023.75 1023.53 1023.50 1023.59 1023.73 1023.87 1023.94 1023.96 1023.97
1011.64 1011.90 1012.72 1013.49 1014.31 1014.96 1015.39 1016.00 1016.55 1017.19 1017.51 1018.00 1018.07 1018.35 1018.81 1019.14 1019.76 1020.09 1020.44 1020.80 1021.08 1021.36 1021.63 1021.92 1022.29 1022.63 1022.93 1023.13 1023.23 1023.30 1023.41 1023.56 1023.72 1023.81 1023.82 1023.70 1023.68 1023.76 1023.92 1024.09 1024.16 1024.21 1024.22
1011.29 1012.10 1012.64 1013.21 1014.23 1014.92 1015.47 1016.08 1016.54 1017.11 1017.69 1018.17 1018.35 1018.59 1018.99 1019.38 1019.94 1020.37 1020.63 1021.01 1021.33 1021.66 1021.97 1022.26 1022.57 1022.79 1022.97 1023.14 1023.26 1023.35 1023.46 1023.58 1023.72 1023.82 1023.84 1023.76 1023.74 1023.81 1023.91 1024.05 1024.19 1024.30 1024.30
1009.07 1011.30 1012.81 1012.98 1014.09 1014.75 1015.45 1016.19 1016.82 1017.13 1017.69 1018.08 1018.52 1018.71 1019.02 1019.54 1020.15 1020.50 1020.83 1021.10 1021.42 1021.69 1021.96 1022.26 1022.47 1022.67 1022.91 1023.08 1023.31 1023.40 1023.44 1023.50 1023.56 1023.70 1023.79 1023.78 1023.78 1023.77 1023.84 1024.00 1024.12 1024.16 1024.29
1009.36 1010.03 1012.19 1012.98 1013.74 1014.39 1015.41 1016.25 1016.87 1017.24 1017.66 1018.18 1018.53 1018.72 1019.09 1019.40 1019.95 1020.46 1020.83 1021.11 1021.37 1021.59 1021.91 1022.19 1022.40 1022.55 1022.69 1022.86 1023.05 1023.28 1023.46 1023.57 1023.65 1023.69 1023.77 1023.82 1023.77 1023.76 1023.74 1023.82 1023.93 1024.07 1024.22
1009.85 1009.75 1011.82 1012.89 1013.45 1014.11 1015.11 1016.05 1016.67 1017.05 1017.53 1018.09 1018.41 1018.75 1018.90 1019.30 1019.71 1020.20 1020.69 1021.01 1021.21 1021.51 1021.84 1022.25 1022.45 1022.57 1022.77 1022.87 1022.94 1023.07 1023.24 1023.39 1023.60 1023.64 1023.67 1023.83 1023.92 1023.92 1023.91 1023.78 1023.68 1023.82 1023.99
1010.04 1010.65 1011.13 1012.38 1013.39 1014.04 1014.63 1015.55 1016.31 1016.82 1017.31 1017.84 1018.29 1018.66 1018.92 1019.14 1019.42 1019.87 1020.31 1020.67 1021.00 1021.38 1021.74 1022.11 1022.45 1022.74 1022.86 1023.01 1023.07 1023.02 1022.99 1023.17 1023.31 1023.43 1023.48 1023.48 1023.57 1023.67 1023.77 1023.84 1023.76 1023.72 1023.79
1009.89 1010.56 1011.12 1011.55 1012.77 1013.56 1014.57 1014.98 1016.07 1016.60 1017.07 1017.58 1018.12 1018.31 1018.68 1018.92 1019.27 1019.60 1019.94 1020.23 1020.68 1021.14 1021.49 1021.80 1022.36 1022.67 1022.78 1022.92 1022.99 1023.01 1022.98 1023.02 1023.01 1023.06 1023.30 1023.33 1023.35 1023.41 1023.45 1023.58 1023.63 1023.67 1023.70
1009.93 1010.45 1010.89 1011.51 1012.43 1013.58 1014.58 1015.47 1016.07 1016.62 1016.96 1017.27 1017.70 1018.02 1018.47 1018.83 1019.21 1019.59 1019.90 1020.07 1020.42 1020.88 1021.26 1021.63 1021.97 1022.36 1022.58 1022.70 1022.91 1022.90 1022.77 1022.65 1022.71 1022.88 1023.03 1023.11 1023.16 1023.12 1023.15 1023.25 1023.29 1023.56 1023.68
1009.71 1010.69 1010.39 1010.88 1012.03 1013.39 1014.32 1015.28 1016.01 1016.23 1016.92 1017.39 1017.55 1017.69 1017.98 1018.38 1018.81 1019.18 1019.55 1019.89 1020.16 1020.48 1020.72 1021.20 1021.74 1022.15 1022.56 1022.81 1023.11 1022.89 1022.46 1022.75 1022.69 1022.83 1022.87 1023.00 1023.03 1023.01 1023.08 1023.13 1023.23 1023.53 1023.81
1009.71 1009.58 1009.41 1009.68 1011.43 1012.68 1013.80 1014.63 1015.26 1015.82 1016.40 1016.87 1017.13 1017.30 1017.53 1017.77 1018.22 1018.61 1018.96 1019.42 1019.83 1020.40 1020.74 1021.18 1021.75 1022.28 1022.53 1022.84 1023.29 1023.48 1022.99 1023.16 1022.97 1023.00 1022.99 1022.90 1023.10 1023.11 1023.15 1023.28 1023.54 1023.59 1023.82
1009.87 1010.25 1010.51 1010.75 1011.07 1012.50 1013.51 1014.14 1015.07 1015.92 1016.62 1016.96 1017.03 1017.11 1017.57 1017.82 1017.93 1018.15 1018.78 1019.16 1019.43 1019.87 1020.39 1020.86 1021.42 1021.96 1022.52 1022.86 1023.08 1023.55 1023.49 1023.51 1023.26 1023.00 1023.25 1023.28 1023.19 1023.24 1023.49 1023.65 1023.84 1023.91 1023.87
1009.72 1010.43 1010.68 1010.90 1011.66 1011.99 1012.92 1013.61 1014.65 1015.53 1015.89 1016.44 1016.83 1016.77 1017.03 1017.72 1017.71 1017.79 1018.51 1019.09 1019.49 1019.78 1020.33 1020.96 1021.42 1021.82 1022.20 1022.44 1022.89 1022.76 1023.10 1023.25 1023.50 1023.54 1023.36 1023.54 1023.50 1023.54 1023.59 1023.66 1024.02 1024.18 1024.04
1010.17 1010.99 1011.37 1011.69 1011.36 1010.11 1012.34 1013.17 1013.78 1015.13 1015.63 1016.17 1016.44 1016.94 1017.22 1017.25 1017.07 1017.81 1018.50 1019.15 1019.67 1020.09 1020.23 1020.29 1020.49 1021.06 1021.54 1021.79 1021.99 1022.14 1022.44 1022.68 1022.88 1023.07 1023.15 1023.45 1023.55 1023.70 1023.87 1023.76 1024.11 1024.52 1024.28
1010.03 1010.46 1011.02 1011.68 1011.91 1012.07 1012.72 1013.19 1013.76 1014.66 1015.08 1015.60 1016.50 1016.54 1016.82 1017.01 1017.23 1017.91 1018.08 1018.14 1018.43 1019.34 1019.59 1020.00 1020.44 1020.83 1021.30 1021.65 1021.84 1022.06 1022.22 1022.30 1022.68 1022.96 1023.18 1023.24 1023.40 1023.53 1023.74 1023.65 1023.82 1024.28 1024.44
Thickness
5766 5765 5761 5760 5758 5759 5760 5759 5756 5756 5754 5753 5754 5751 5749 5746 5744 5742 5741 5738 5736 5735 5733 5730 5728 5725 5723 5722 5720 5719 5718 5718 5718 5717 5716 5717 5717 5716 5715 5714 5713 5712 5709
5765 5762 5760 5757 5757 5756 5756 5756 5755 5753 5752 5750 5751 5750 5748 5744 5742 5740 5738 5736 5733 5733 5730 5727 5725 5722 5721 5719 5717 5716 5716 5715 5715 5715 5714 5714 5713 5713 5711 5710 5709 5707 5705
5764 5760 5759 5757 5755 5755 5752 5752 5752 5751 5751 5749 5749 5748 5747 5743 5740 5738 5735 5733 5731 5729 5727 5725 5722 5720 5718 5716 5714 5713 5712 5712 5712 5712 5711 5710 5710 5711 5709 5707 5707 5704 5702
5762 5758 5756 5756 5753 5752 5750 5749 5748 5749 5748 5746 5746 5746 5744 5741 5737 5734 5732 5731 5728 5726 5723 5721 5718 5717 5715 5714 5712 5711 5710 5710 5710 5710 5710 5708 5707 5707 5707 5705 5704 5701 5698
5757 5755 5753 5753 5751 5749 5748 5746 5745 5745 5744 5743 5742 5742 5740 5737 5734 5732 5730 5727 5725 5723 5720 5717 5716 5714 5712 5710 5710 5709 5708 5707 5707 5706 5705 5705 5705 5702 5701 5700 5700 5698 5695
5750 5750 5749 5748 5747 5746 5744 5743 5742 5740 5740 5739 5739 5738 5736 5732 5731 5728 5726 5724 5722 5720 5716 5714 5714 5712 5709 5708 5706 5705 5705 5705 5705 5703 5702 5701 5700 5699 5698 5696 5695 5693 5691
5747 5744 5744 5744 5742 5741 5739 5738 5738 5738 5734 5736 5736 5734 5731 5729 5727 5725 5723 5721 5718 5717 5714 5711 5710 5709 5707 5705 5704 5703 5702 5702 5701 5699 5699 5698 5697 5696 5694 5693 5691 5689 5687
5741 5738 5738 5738 5737 5736 5737 5734 5734 5734 5730 5733 5732 5730 5727 5724 5723 5721 5719 5718 5716 5713 5711 5708 5707 5705 5704 5702 5701 5701 5699 5698 5698 5696 5694 5694 5693 5691 5689 5688 5686 5684 5683
5733 5733 5732 5733 5731 5729 5731 5730 5729 5729 5727 5728 5725 5726 5723 5720 5718 5717 5716 5715 5713 5710 5707 5705 5704 5702 5700 5699 5697 5697 5696 5695 5693 5692 5691 5690 5689 5688 5685 5683 5681 5679 5677
5724 5728 5727 5727 5726 5725 5724 5725 5724 5723 5722 5725 5720 5721 5719 5716 5714 5713 5712 5711 5709 5707 5704 5701 5700 5698 5697 5696 5695 5693 5693 5692 5690 5688 5688 5686 5684 5684 5682 5679 5677 5675 5672
5717 5720 5723 5721 5719 5720 5719 5720 5720 5718 5718 5718 5717 5717 5715 5713 5710 5709 5708 5707 5704 5702 5700 5698 5696 5695 5693 5693 5692 5691 5689 5687 5685 5684 5683 5683 5682 5680 5678 5675 5673 5671 5668
5712 5714 5716 5715 5713 5713 5714 5715 5714 5712 5713 5712 5714 5713 5712 5711 5705 5705 5704 5703 5701 5700 5698 5695 5692 5691 5690 5689 5688 5687 5685 5684 5682 5680 5680 5679 5678 5676 5673 5670 5668 5665 5663
5705 5710 5711 5711 5708 5708 5709 5709 5707 5705 5708 5706 5710 5710 5708 5708 5703 5702 5700 5698 5697 5695 5694 5692 5690 5688 5686 5685 5685 5684 5683 5682 5680 5678 5676 5675 5674 5672 5669 5666 5663 5661 5658
5701 5702 5706 5707 5705 5704 5704 5704 5704 5702 5702 5702 5704 5705 5704 5703 5700 5697 5697 5695 5693 5691 5690 5689 5687 5685 5684 5682 5681 5681 5680 5679 5677 5675 5673 5672 5670 5668 5666 5663 5661 5658 5656
5709 5699 5694 5701 5699 5701 5701 5699 5698 5699 5698 5699 5699 5700 5701 5699 5695 5694 5692 5691 5689 5688 5687 5686 5685 5684 5682 5681 5678 5677 5677 5676 5676 5673 5671 5669 5667 5665 5662 5659 5657 5655 5652
5707 5707 5695 5693 5694 5698 5697 5693 5692 5694 5694 5694 5694 5696 5695 5695 5692 5689 5688 5687 5686 5685 5683 5682 5682 5681 5680 5679 5677 5674 5672 5671 5671 5670 5668 5666 5664 5662 5660 5657 5654 5652 5648
5700 5706 5692 5690 5694 5695 5694 5690 5689 5691 5691 5690 5691 5691 5693 5691 5690 5687 5685 5683 5683 5681 5679 5677 5676 5676 5675 5674 5674 5673 5671 5669 5667 5666 5665 5663 5660 5657 5654 5653 5651 5648 5645
5691 5692 5698 5694 5692 5691 5693 5690 5688 5688 5688 5687 5687 5687 5687 5688 5688 5686 5683 5681 5679 5678 5676 5674 5671 5671 5670 5669 5669 5669 5669 5667 5665 5662 5661 5660 5658 5655 5652 5649 5647 5645 5641
5689 5690 5694 5699 5691 5690 5689 5690 5685 5684 5685 5683 5683 5685 5684 5685 5683 5682 5681 5680 5678 5676 5674 5672 5669 5667 5666 5665 5664 5664 5663 5662 5661 5658 5656 5655 5653 5651 5649 5646 5644 5641 5638
5684 5689 5690 5694 5689 5688 5683 5679 5678 5679 5680 5682 5682 5681 5680 5679 5679 5677 5677 5677 5676 5674 5672 5670 5667 5664 5663 5661 5660 5658 5658 5657 5656 5653 5651 5649 5647 5646 5644 5642 5641 5638 5633
5677 5678 5694 5691 5687 5680 5678 5675 5673 5676 5675 5675 5678 5679 5680 5679 5677 5676 5675 5673 5673 5672 5670 5667 5663 5660 5656 5654 5651 5652 5654 5651 5649 5645 5644 5643 5642 5640 5638 5636 5634 5632 5626
5672 5683 5690 5673 5683 5681 5676 5675 5674 5674 5673 5672 5673 5675 5678 5678 5677 5675 5674 5673 5670 5665 5663 5660 5655 5651 5650 5646 5641 5639 5640 5639 5639 5638 5637 5636 5634 5632 5630 5629 5625 5625 5621
5668 5673 5679 5668 5669 5671 5670 5668 5665 5661 5659 5662 5666 5671 5671 5670 5673 5672 5669 5668 5666 5663 5659 5656 5651 5647 5640 5637 5635 5631 5627 5624 5626 5631 5629 5627 5627 5626 5622 5620 5617 5615 5614
5664 5666 5670 5674 5668 5675 5666 5665 5664 5658 5660 5660 5661 5667 5668 5663 5666 5667 5665 5662 5660 5657 5654 5648 5643 5640 5635 5633 5630 5629 5625 5623 5618 5620 5622 5619 5619 5617 5615 5613 5608 5606 5605
5653 5653 5655 5662 5672 5668 5666 5668 5669 5663 5662 5661 5656 5659 5659 5662 5668 5663 5658 5654 5649 5644 5641 5644 5639 5636 5632 5631 5630 5626 5623 5622 5618 5616 5617 5614 5610 5608 5604 5603 5599 5595 5595
5653 5656 5656 5656 5658 5663 5662 5662 5661 5657 5658 5652 5653 5655 5658 5659 5659 5653 5651 5649 5646 5638 5637 5639 5634 5630 5627 5624 5622 5620 5618 5618 5613 5609 5607 5608 5607 5602 5598 5596 5593 5587 5584